Date String (YYYY-MM-DD hh:mm:ss) UTC,Instrument flags,absolute air pressure of the measurement (hPa),sample flow rate (lpm),inlet stack bypass flow (lpm),air temperature of the measurement (°C),ambient temperature measured by the external sensor (°C),aerosol sample conditioner tube jacket temperature (°C),OPC LED temperature (°C),internal box temperature (°C),relative humidity of the measurement (%),span deviation,mass concentration of particles derived from Lorenz-Mie calculation of OPC scattering (μg/m³),mass concentration of particles derived from Lorenz-Mie calculation of OPC scattering (μg/m³),mass concentration of particles derived from Lorenz-Mie calculation of OPC scattering (μg/m³)
DateTimeUTC,F1_M11,P_M11,Q1_M11,Q2_M11,T1_M11,T2_M11,T3_M11,T4_M11,T5_M11,U1_M11,ZSPAN_M11,X0_M11,X2_M11,X1_M11
2024-05-07 13:00:00,SystemResetWarning,0816.7,5.00,000.00,020.8,020.3,000.0,029.0,022.5,013.7,0000.0,0004.62,0001.66,0000.93
2024-05-07 13:01:00,SystemResetWarning,0816.7,5.01,000.00,020.9,020.2,000.0,029.0,022.5,014.0,0000.0,0004.96,0001.76,0000.96
2024-05-07 13:02:00,SystemResetWarning,0816.6,5.00,000.00,020.9,020.2,000.0,029.0,022.5,014.2,0000.0,0005.03,0001.82,0000.99
2024-05-07 13:03:00,SystemResetWarning,0816.7,5.00,000.00,020.9,020.2,000.0,029.0,022.5,014.1,0000.0,0004.86,0001.79,0001.01
2024-05-07 13:04:00,SystemResetWarning,0816.8,5.01,000.00,020.9,020.2,000.0,029.0,022.5,014.3,0000.0,0004.68,0001.76,0001.02
2024-05-07 13:05:00,SystemResetWarning,0816.7,5.00,000.00,020.9,020.2,000.0,029.0,022.5,014.2,0000.0,0004.68,0001.77,0001.04
2024-05-07 13:06:00,SystemResetWarning,0816.8,5.00,000.00,020.9,020.3,000.0,029.0,022.5,014.4,0000.0,0004.07,0001.80,0001.05
2024-05-07 13:07:00,SystemResetWarning,0816.7,5.00,000.00,020.9,020.3,000.0,029.0,022.5,014.3,0000.0,0003.27,0001.79,0001.07
2024-05-07 13:08:00,SystemResetWarning,0816.7,5.00,000.00,020.9,020.3,000.0,029.0,022.5,014.2,0000.0,0003.39,0001.84,0001.08
2024-05-07 13:09:00,SystemResetWarning,0816.6,5.00,000.00,020.9,020.3,000.0,029.0,022.5,014.1,0000.0,0003.35,0001.83,0001.09
2024-05-07 13:10:00,SystemResetWarning,0816.6,5.00,000.00,020.9,020.3,000.0,029.0,022.5,013.3,0000.0,0003.51,0001.89,0001.10
2024-05-07 13:11:00,SystemResetWarning,0816.6,5.00,000.00,020.9,020.3,000.0,029.0,022.5,013.3,0000.0,0003.62,0001.92,0001.10
2024-05-07 13:12:00,SystemResetWarning,0816.6,4.99,000.00,020.9,020.3,000.0,029.0,022.5,013.6,0000.0,0003.37,0001.89,0001.10
2024-05-07 13:13:00,SystemResetWarning,0816.6,5.00,000.00,020.9,020.3,000.0,029.0,022.5,013.5,0000.0,0003.34,0001.88,0001.10
2024-05-07 13:14:00,SystemResetWarning,0816.6,5.00,000.00,020.9,020.3,000.0,029.0,022.5,013.5,0000.0,0003.47,0001.92,0001.10
2024-05-07 13:15:00,SystemResetWarning,0816.6,5.01,000.00,020.9,020.3,000.0,029.0,022.6,013.7,0000.0,0003.78,0001.99,0001.11
2024-05-07 13:16:00,SystemResetWarning,0816.6,5.00,000.00,020.9,020.3,000.0,029.0,022.6,013.7,0000.0,0004.02,0002.05,0001.14
2024-05-07 13:17:00,SystemResetWarning,0816.7,5.00,000.00,020.9,020.3,000.0,029.0,022.5,013.9,0000.0,0004.78,0002.13,0001.14
2024-05-07 13:18:00,SystemResetWarning,0816.6,4.99,000.00,020.9,020.3,000.0,029.0,022.5,014.1,0000.0,0005.10,0002.17,0001.14
2024-05-07 13:19:00,SystemResetWarning,0816.5,4.99,000.00,020.9,020.3,000.0,029.0,022.5,013.6,0000.0,0005.11,0002.15,0001.13
2024-05-07 13:20:00,SystemResetWarning,0816.5,5.00,000.00,020.9,020.3,000.0,029.0,022.5,013.7,0000.0,0005.41,0002.15,0001.12
2024-05-07 13:21:00,SystemResetWarning,0816.5,5.00,000.00,021.0,020.3,000.0,029.0,022.5,013.7,0000.0,0005.39,0002.13,0001.13
2024-05-07 13:22:00,SystemResetWarning,0816.5,5.01,000.00,021.0,020.3,000.0,029.1,022.6,013.3,0000.0,0005.32,0002.10,0001.12
2024-05-07 13:23:00,SystemResetWarning,0816.6,5.01,000.00,021.0,020.3,000.0,029.1,022.6,013.4,0000.0,0006.03,0002.11,0001.14
2024-05-07 13:24:00,SystemResetWarning,0816.6,5.00,000.00,021.0,020.3,000.0,029.1,022.6,013.3,0000.0,0007.39,0002.10,0001.15
2024-05-07 13:25:00,SystemResetWarning,0816.5,4.99,000.00,021.0,020.3,000.0,029.1,022.6,013.2,0000.0,0007.65,0002.16,0001.17
2024-05-07 13:26:00,SystemResetWarning,0816.4,4.99,000.00,021.0,020.3,000.0,029.1,022.6,012.5,0000.0,0007.63,0002.20,0001.18
2024-05-07 13:27:00,SystemResetWarning,0816.5,5.01,000.00,021.0,020.3,000.0,029.1,022.6,012.3,0000.0,0007.53,0002.17,0001.17
2024-05-07 13:28:00,SystemResetWarning,0816.5,5.01,000.00,021.0,020.3,000.0,029.1,022.6,012.4,0000.0,0007.16,0002.17,0001.19
2024-05-07 13:29:00,SystemResetWarning,0816.5,5.00,000.00,021.0,020.3,000.0,029.1,022.5,012.6,0000.0,0006.95,0002.18,0001.20
2024-05-07 13:30:00,SystemResetWarning,0816.5,5.00,000.00,021.0,020.3,000.0,029.1,022.5,012.8,0000.0,0006.89,0002.20,0001.23
2024-05-07 13:31:00,SystemResetWarning,0816.5,5.00,000.00,021.0,020.3,000.0,029.1,022.5,012.5,0000.0,0006.63,0002.22,0001.25
2024-05-07 13:32:00,SystemResetWarning,0816.5,4.99,000.00,021.0,020.3,000.0,029.1,022.5,012.8,0000.0,0006.57,0002.25,0001.27
2024-05-07 13:33:00,SystemResetWarning,0816.4,5.00,000.00,021.0,020.3,000.0,029.1,022.6,012.7,0000.0,0006.67,0002.28,0001.29
2024-05-07 13:34:00,SystemResetWarning,0816.5,5.00,000.00,021.0,020.3,000.0,029.1,022.6,013.1,0000.0,0007.04,0002.31,0001.30
2024-05-07 13:35:00,SystemResetWarning,0816.5,5.00,000.00,021.0,020.3,000.0,029.1,022.6,012.9,0000.0,0006.07,0002.35,0001.30
2024-05-07 13:36:00,SystemResetWarning,0816.4,4.99,000.00,021.0,020.3,000.0,029.1,022.5,013.1,0000.0,0005.86,0002.30,0001.30
2024-05-07 13:37:00,SystemResetWarning,0816.3,5.01,000.00,021.0,020.3,000.0,029.1,022.6,013.0,0000.0,0005.78,0002.25,0001.29
2024-05-07 13:38:00,SystemResetWarning,0816.5,5.01,000.00,021.0,020.3,000.0,029.1,022.6,013.0,0000.0,0005.95,0002.31,0001.31
2024-05-07 13:39:00,SystemResetWarning,0816.5,5.01,000.00,021.0,020.3,000.0,029.1,022.5,013.0,0000.0,0006.45,0002.26,0001.30
2024-05-07 13:40:00,SystemResetWarning,0816.4,4.99,000.00,021.0,020.3,000.0,029.1,022.5,013.2,0000.0,0006.96,0002.26,0001.29
2024-05-07 13:41:00,SystemResetWarning,0816.5,4.99,000.00,021.0,020.3,000.0,029.1,022.6,012.7,0000.0,0006.94,0002.23,0001.29
2024-05-07 13:42:00,SystemResetWarning,0816.5,5.00,000.00,021.0,020.3,000.0,029.1,022.6,012.7,0000.0,0007.08,0002.26,0001.30
2024-05-07 13:43:00,SystemResetWarning,0816.5,5.00,000.00,021.0,020.3,000.0,029.1,022.6,012.5,0000.0,0007.16,0002.28,0001.31
2024-05-07 13:44:00,SystemResetWarning,0816.5,5.00,000.00,021.0,020.3,000.0,029.1,022.6,012.8,0000.0,0007.10,0002.29,0001.30
2024-05-07 13:45:00,SystemResetWarning,0816.6,5.01,000.00,021.0,020.3,000.0,029.1,022.6,012.9,0000.0,0006.09,0002.25,0001.29
2024-05-07 13:46:00,SystemResetWarning,0816.6,4.99,000.00,021.0,020.3,000.0,029.1,022.6,013.3,0000.0,0005.47,0002.22,0001.30
2024-05-07 13:47:00,SystemResetWarning,0816.4,4.99,000.00,021.0,020.3,000.0,029.1,022.6,013.2,0000.0,0005.38,0002.24,0001.32
2024-05-07 13:48:00,SystemResetWarning,0816.5,5.00,000.00,021.0,020.3,000.0,029.1,022.6,013.2,0000.0,0005.42,0002.27,0001.34
2024-05-07 13:49:00,SystemResetWarning,0816.4,4.99,000.00,021.0,020.3,000.0,029.1,022.6,013.3,0000.0,0005.34,0002.24,0001.33
2024-05-07 13:50:00,SystemResetWarning,0816.5,5.01,000.00,021.0,020.3,000.0,029.1,022.5,013.2,0000.0,0005.06,0002.29,0001.34
2024-05-07 13:51:00,SystemResetWarning,0816.5,5.01,000.00,021.0,020.3,000.0,029.1,022.5,013.4,0000.0,0004.33,0002.32,0001.37
2024-05-07 13:52:00,SystemResetWarning,0816.5,5.00,000.00,021.0,020.3,000.0,029.1,022.6,013.4,0000.0,0004.39,0002.36,0001.38
2024-05-07 13:53:00,SystemResetWarning,0816.5,4.98,000.00,021.0,020.3,000.0,029.1,022.6,013.6,0000.0,0004.42,0002.35,0001.37
2024-05-07 13:54:00,SystemResetWarning,0816.5,4.99,000.00,021.0,020.3,000.0,029.1,022.6,013.5,0000.0,0005.46,0002.38,0001.36
2024-05-07 13:55:00,SystemResetWarning,0816.4,5.01,000.00,021.0,020.2,000.0,029.1,022.6,013.5,0000.0,0005.40,0002.33,0001.35
2024-05-07 13:56:00,SystemResetWarning,0816.4,5.01,000.00,020.9,020.2,000.0,029.1,022.5,013.7,0000.0,0005.37,0002.31,0001.36
2024-05-07 13:57:00,SystemResetWarning,0816.5,4.99,000.00,020.9,020.2,000.0,029.1,022.5,013.6,0000.0,0005.59,0002.33,0001.36
2024-05-07 13:58:00,SystemResetWarning,0816.5,4.99,000.00,020.9,020.2,000.0,029.1,022.5,013.6,0000.0,0005.60,0002.33,0001.36
2024-05-07 13:59:00,SystemResetWarning,0816.5,5.01,000.00,020.9,020.2,000.0,029.1,022.5,013.9,0000.0,0005.66,0002.34,0001.35
